Location: Asis
(14.1331°N, 120.9056°E)
Time: 11:43:23
(UTC+00:00)

GRACE-FO 1 - Pass Details

Date: 15 January 2026
Orbit: 447 x 461 km, 89.0° (Epoch: 17 February)

Event Time Altitude Azimuth Distance (km) Brightness Sun altitude
Rises 10:35:35 0° 8° (N) 2,482 7.9 -11.8°
Reaches altitude 10° 10:37:40 10° 13° (NNE) 1,607 6.9 -12.3°
Maximum altitude 10:41:06 56° 92° (E) 551 4.5 -13.1°
Drops below altitude 10° 10:44:31 10° 171° (S) 1,604 7.3 -13.9°
Sets 10:46:35 0° 176° (S) 2,476 8.3 -14.4°
